Regional Weather Roundup
Issued by NWS

Home | Current Version | Previous Version | Graphics & Text | Print | Product List | Glossary On
Versions: 1 2 3 4 5 6 7 8 9 10 11 12 13 14 15 16 17 18 19 20 21 22 23 24 25 26 27 28 29 30 31 32 33 34 35 36 37 38 39 40 41 42 43 44 45 46 47 48 49 50
635
ASUS43 KOAX 301710
RWRNE

WEATHER ROUNDUP FOR NEBRASKA
NATIONAL WEATHER SERVICE OMAHA NE
1200 PM CDT SAT JUL 30 2016

NOTES: SATELLITE DATA IS BEING USED TO AUGMENT CLOUD COVER ABOVE
       12000 FEET.
       "FAIR" INDICATES FEW OR NO CLOUDS BELOW 12,000 FEET WITH NO
       SIGNIFICANT WEATHER AND/OR OBSTRUCTIONS TO VISIBILITY.

  * THESE STATIONS DO NOT REPORT WEATHER SUCH AS RAIN...SNOW OR FOG.

NEZ001>004-019>022-054>056-301800-
NEBRASKA PANHANDLE

CITY           SKY/WX    TMP DP  RH WIND       PRES   REMARKS
SCOTTSBLUFF    SUNNY     77  64  64 E8        30.00F
ALLIANCE       SUNNY     78  61  55 E3        30.00S
CHADRON        SUNNY     82  62  50 VRB6      29.94F
KIMBALL        SUNNY     80  56  43 S10G16    30.06R
SIDNEY         SUNNY     78  63  59 SE6       30.04S
$$

NEZ057>060-069>072-079>082-301800-
SOUTHWEST NEBRASKA

CITY           SKY/WX    TMP DP  RH WIND       PRES   REMARKS
NORTH PLATTE   PTSUNNY   74  66  76 SE16      30.00F
IMPERIAL       CLOUDY    78  62  57 VRB6      30.00S
LEXINGTON      CLOUDY    73  65  76 E13       30.02F
MCCOOK         SUNNY     84  62  47 SE6       29.98F
OGALLALA       SUNNY     80  63  56 E6        30.00S
$$

NEZ005>010-023>029-035>040-094-301800-
NORTH CENTRAL NEBRASKA

CITY           SKY/WX    TMP DP  RH WIND       PRES   REMARKS
VALENTINE      SUNNY     77  62  59 S14       29.98S
AINSWORTH      MOSUNNY   76  65  68 S15       29.99S
BROKEN BOW     SUNNY     74  65  73 SE12      30.02S
O`NEILL        SUNNY     77  63  62 S10       30.00S
ORD            SUNNY     75  63  66 S10       29.99F
THEDFORD       MOSUNNY   76  65  69 SE13      30.02F
$$

NEZ041-046>049-061>064-073>077-083>087-301800-
SOUTH CENTRAL NEBRASKA

CITY           SKY/WX    TMP DP  RH WIND       PRES   REMARKS
GRAND ISLAND   PTSUNNY   69  64  84 S6        30.02F
AURORA         CLOUDY    68  67  95 S8        30.02F
HASTINGS       CLOUDY    71  63  75 SE8       30.03F
HEBRON         CLOUDY    65  63  94 S6        30.05S
HOLDREGE       MOSUNNY   73  65  75 E13       30.03F
KEARNEY *      MOSUNNY   73  66  78 SE10      30.04S
YORK           CLOUDY    68  64  88 SE5       30.02S
$$

NEZ011>018-030>034-042>045-301800-
NORTHEAST NEBRASKA

CITY           SKY/WX    TMP DP  RH WIND       PRES   REMARKS
NORFOLK        MOSUNNY   74  62  66 SE9       30.02R
ALBION         PTSUNNY   70  65  86 S5        30.02S
BLAIR          CLOUDY    71  65  79 E7        30.04S
FREMONT        CLOUDY    70  64  80 E8        30.04R
TEKAMAH        CLOUDY    74  63  68 E9        30.03S
WAYNE          MOSUNNY   75  65  71 SE6       30.03R
$$

NEZ050>053-065>068-078-088>093-301800-
SOUTHEAST NEBRASKA

CITY           SKY/WX    TMP DP  RH WIND       PRES   REMARKS
LINCOLN        LGT RAIN  70  66  87 CALM      30.04S FOG
OMAHA EPPLEY   CLOUDY    74  64  71 E6        30.03F
BEATRICE       TSTM      68  64  87 S5        30.07R
FALLS CITY     MOSUNNY   77  66  68 VRB5      30.03S
NEBRASKA CITY  PTSUNNY   73  67  79 CALM      30.04S
PLATTSMOUTH    CLOUDY    72  65  79 E3        30.04S
$$

NEZ044-045-051>053-067-301800-
OMAHA AREA

CITY           SKY/WX    TMP DP  RH WIND       PRES   REMARKS
OMAHA EPPLEY   CLOUDY    74  64  71 E6        30.03F
BLAIR          CLOUDY    71  65  79 E7        30.04S
FREMONT        CLOUDY    70  64  80 E8        30.04R
MILLARD        CLOUDY    72  65  76 SE5       30.04R
OFFUTT AFB     PTSUNNY   73  65  78 E5        30.03S
PLATTSMOUTH    CLOUDY    72  65  79 E3        30.04S
WAHOO          PTSUNNY   71  65  82 SE10      30.03S
$$




USA.gov is the U.S. government's official web portal to all federal, state and local government web resources and services.